Regional Weather Roundup
Issued by NWS Upton, NY

Current Version | Previous Version | Graphics & Text | Print | Product List | Glossary Off
Versions: 1 2 3 4 5 6 7 8 9 10 11 12 13 14 15 16 17 18 19 20 21 22 23 24 25 26 27 28 29 30 31 32 33 34 35 36 37 38 39 40 41 42 43 44 45 46 47 48 49 50

000
ASUS41 KOKX 301705
RWROKX

REGIONAL WEATHER ROUNDUP
NATIONAL WEATHER SERVICE NEW YORK NY
100 PM EDT MON MAY 30 2016

NOTE: "FAIR" INDICATES FEW OR NO CLOUDS BELOW 12,000 FEET WITH NO
SIGNIFICANT WEATHER AND/OR OBSTRUCTIONS TO VISIBILITY.

NYZ071-072-176-178-NJZ106-104-301800-
NEW YORK CITY METRO AREA


CITY           SKY/WX    TMP DP  RH WIND       PRES   REMARKS
CENTRAL PARK   PTSUNNY   78  68  71 CALM      29.99F
LAGUARDIA APRT PTSUNNY   79  71  76 VRB5      29.95F
KENNEDY INTL   CLOUDY    73  69  87 S9        29.98F
NEWARK/LIBERTY PTSUNNY   80  67  64 SW3       29.96S
BRNX BOT. GARD   N/A     77  66  69 CALM      29.97S
TETERBORO      PTSUNNY   80  64  58 VRB5      29.94F
$$

NYZ177-179-078>081-301800-
LONG ISLAND NEW YORK

CITY           SKY/WX    TMP DP  RH WIND       PRES   REMARKS
FARMINGDALE    PTSUNNY   75  68  78 S8        29.97F
ISLIP          FOG       69  67  93 S7        29.97F VSB 3/4
SHIRLEY        CLOUDY    68  67  96 S8        29.99F FOG
RIVERHEAD        N/A     70  68  94 SW1       29.97F
WESTHAMPTON    FOG       65  64  97 SW8       30.01S VSB 1/2
EAST HAMPTON   FOG       65  65  99 SW8       29.99F VSB 1/2
MONTAUK POINT    N/A     67  66  97 SW9G18    30.00F
$$

NYZ052-065-067-301800-
HUDSON VALLEY

CITY           SKY/WX    TMP DP  RH WIND       PRES   REMARKS
WHITE PLAINS   PTSUNNY   77  67  71 NW5       29.96F
NEWBURGH       NOT AVBL
MONTGOMERY     MOSUNNY   79  68  69 S9        29.95F
POUGHKEEPSIE   CLOUDY    77  66  68 SW6       29.94F
ALBANY         MOSUNNY   78  63  59 S12       29.92F
$$

NJZ001-105-106-008-010-013-015-019>022-104-301800-
NEW JERSEY

CITY           SKY/WX    TMP DP  RH WIND       PRES   REMARKS
NEWARK/LIBERTY PTSUNNY   80  67  64 SW3       29.96S
TETERBORO      PTSUNNY   80  64  58 VRB5      29.94F
CALDWELL       MOSUNNY   79  66  64 CALM      29.96F
MORRISTOWN     CLOUDY    79  66  65 CALM      29.96F
SOMERVILLE     MOSUNNY   79  67  66 CALM      29.95F
SUSSEX         MOSUNNY   78  66  66 VRB6      29.96F
ANDOVER          N/A     78  65  63 SW6       29.97F
TRENTON        CLOUDY    78  67  68 VRB5      29.97F
MILLVILLE      LGT RAIN  75  70  84 S3        29.99S
ATLANTIC CITY  LGT RAIN  74  72  93 S10       30.00S FOG
WRIGHTSTOWN    CLOUDY    78  70  78 VRB6      29.96F
TOMS RIVER     CLOUDY    75  70  83 S9        29.99S
BELMAR         CLOUDY    78  70  76 S8        29.98F
$$

PAZ047>061-062-071-301800-
EASTERN PENNSYLVANIA

CITY           SKY/WX    TMP DP  RH WIND       PRES   REMARKS
PHILADELPHIA   CLOUDY    77  67  71 SW8       29.99S
ALLENTOWN      MOSUNNY   79  65  62 W6        29.98F
SCRANTON       SUNNY     79  62  56 VRB3      29.97F
$$

CTZ002-004>006-009-010-012-RIZ004-006-007-MAZ004-011-015-301800-
SOUTHERN NEW ENGLAND
 IN CT

CITY           SKY/WX    TMP DP  RH WIND       PRES   REMARKS
BRADLEY INTL   LGT RAIN  73  67  81 S7        29.94F
HARTFORD       CLOUDY    74  68  81 SE6       29.95F
DANBURY        PTSUNNY   75  66  73 SW8       29.97F
WTRBRY/OXFORD  CLOUDY    72  64  78 CALM      29.99F
BRIDGEPORT     CLOUDY    74  68  81 SW9       29.97S
MERIDEN        CLOUDY    75  67  76 VRB3      29.96S
NEW HAVEN      CLOUDY    70  68  93 S6        29.97F FOG
CHESTER        CLOUDY    70  70 100 S7        29.98F
GROTON         CLOUDY    65  65 100 SW10      29.98S FOG
WILLIMANTIC    CLOUDY    72  67  84 CALM      29.97F

 IN RI

CITY           SKY/WX    TMP DP  RH WIND       PRES   REMARKS
PROVIDENCE     DRIZZLE   69  66  90 NE3       29.98F
BLOCK ISLAND   LGT RAIN  63  63 100 SW14      30.00F VSB 1/4
WESTERLY       FOG       66  64  93 SW8       29.99F VSB 3/4

 IN MA

CITY           SKY/WX    TMP DP  RH WIND       PRES   REMARKS
BOSTON         CLOUDY    60  60 100 SE7       29.97F
WORCESTER      CLOUDY    68  64  87 S6        29.98F
WESTFIELD      CLOUDY    73  67  81 SE7       29.94F
PROVINCETOWN   CLOUDY    65  65 100 SW13      29.98S
NANTUCKET      RAIN      64  62  93 SW15      30.02S FOG
$$

ANZ330-335-338-340-345-350-353-355-301800-
COASTAL MARINE OBSERVATIONS


STATION/POSITION TIME  SKY/WX   TEMP    WIND        PRES    VSBY  WAVE
                                AIR SEA DIR/SP/G                  HT/PER
                 (UTC)          (F)     (DEG/KT/KT) (MB)    (MI)  (FT/S)
NY HARB ENTRANCE 1550            61 58  200/  8/  8 1015.1          3/ 7
20S FIRE ISLAND  1550            63 61  210/ 10/ 12 1015.7          3/ 8
GREAT SOUTH BAY  1600            64 71  230/ 10/ 12   N/A
23 SSW MONTAUK P 1650            64 59  210/ 16/ 17 1015.3          4/ 6
15 E BARNEGAT LI 1622               61                N/A           3/ 7
HUDSON CANYON    1550            63 59              1016.8          3/ 6
KINGS POINT      1600            74 60              1014.6
EXECUTION ROCKS  NOT AVBL
CENTRAL LI SOUND 1600            66     240/  4/  4   N/A           0
EASTERN LI SOUND 1600            61 55  210/ 10/ 12   N/A
ROBBINS REEF     1600            72     160/ 12/ 13 1014.2
$$


>>>>>>>>>>>>>>>>>>>>>>>>>>>> KEY <<<<<<<<<<<<<<<<<<<<<<<<<<<
>                                                          <
>     SKY/WX - SKY CONDITION/PRESENT WEATHER               <
>     TMP    - TEMPERATURE IN FAHRENHEIT                   <
>     DP     - DEWPOINT IN FAHRENHEIT                      <
>     RH     - RELATIVE HUMIDITY IN PERCENT                <
>     WIND   - DIRECTION AND SPEED IN MPH                  <
>     PRES   - MEAN SEA LEVEL PRESSURE IN INCHES OF HG     <
>     WCI    - WIND CHILL INDEX                            <
>     VSB    - VISIBILITY IN MILES                         <
>     HX     - HEAT INDEX                                  <
>     TC     - TEMPERATURE IN CELSIUS                      <
>     VRB    - VARIABLE WIND DIRECTION                     <
>                                                          <
>>>>>>>>>>>>>>>>>>>>>>>>>>>> KEY <<<<<<<<<<<<<<<<<<<<<<<<<<<





USA.gov is the U.S. government's official web portal to all federal, state and local government web resources and services.